sat.trackr.live / text

‹ back to catalog

STARLINK-36381

NORAD 67952 · 2026-037W

PAYLOAD ACTIVE UNKNOWN

§ Identity

Operator
Country
US
Launch date
2026-02-24
Launch site
AFETR
Launch vehicle
Mass (kg)
RCS (m²)

Purposes: comms

External: N2YO · Heavens-Above · Gunter

§ Orbital elements

Epoch: 2026-09-19T11:12:21.650400Z

Period
94.27 min
Inclination
43.0029°
Eccentricity
0.0001069
Mean motion
15.27590190 rev/d
Perigee alt
482.3 km
Apogee alt
483.8 km
Semi-major
6,861.2 km
B*
5.8108e-4
RAAN
176.6074°
Arg perigee
276.1171°
Mean anomaly
83.9559°
Rev number
3,297

§ Raw data

STARLINK-363811 67952U 26037W   26262.46691725  .00015767  00000+0  58108-3 0  99952 67952  43.0029 176.6074 0001069 276.1171  83.9559 15.27590190 32970

JSON: /api/v1/satellites/67952 · /tle

For live sub-satellite position, see the globe view (requires WebGL).

§ Visibility from observer

Set your observer location to see the next 7 days of passes ≥ 10°. The values pass through the URL so the page stays shareable.

No JS? Fill the form by hand. The geolocation button needs JavaScript.